This is the latest recevied weather packets stored in our database for station/object N8ESC. If no packets are shown the sender has not sent any weather packets the latest 10 day(s).
| Time | Temp. | Humidity | Pressure | Rain* | Wind** | Luminosity | Snow |
|---|---|---|---|---|---|---|---|
| 1777997376 | 9.44° C | 41% | 1003.8 hPa | 0 mm | - | 362 W/m² | - |
| 1777997075 | 9.44° C | 43% | 1003.7 hPa | 0 mm | - | 530 W/m² | - |
| 1777996770 | 9.44° C | 41% | 1003.8 hPa | 0 mm | - | 361 W/m² | - |
| 1777996467 | 8.89° C | 44% | 1003.7 hPa | 0 mm | - | 655 W/m² | - |
| 1777996164 | 10° C | 43% | 1003.5 hPa | 0 mm | - | 324 W/m² | - |
| 1777995860 | 9.44° C | 43% | 1003.6 hPa | 0 mm | - | 274 W/m² | - |
| 1777995556 | 10° C | 42% | 1003.5 hPa | 0 mm | - | 824 W/m² | - |
| 1777995254 | 8.89° C | 42% | 1003.6 hPa | 0 mm | - | 543 W/m² | - |
| 1777994951 | 10° C | 40% | 1003.6 hPa | 0 mm | - | 634 W/m² | - |
| 1777994648 | 9.44° C | 44% | 1003.5 hPa | 0 mm | - | 723 W/m² | - |
| 1777994348 | 8.89° C | 44% | 1003.5 hPa | 0 mm | - | 172 W/m² | - |
| 1777994044 | 9.44° C | 42% | 1003.7 hPa | 0 mm | - | 361 W/m² | - |
| 1777993742 | 9.44° C | 43% | 1003.6 hPa | 0 mm | - | 749 W/m² | - |
| 1777993439 | 8.89° C | 45% | 1003.5 hPa | 0 mm | - | 629 W/m² | - |
| 1777993138 | 8.89° C | 46% | 1003.6 hPa | 0 mm | - | 617 W/m² | - |
| 1777992837 | 7.78° C | 47% | 1003.8 hPa | 0 mm | - | 218 W/m² | - |
| 1777992534 | 8.33° C | 48% | 1003.5 hPa | 0 mm | - | 218 W/m² | - |
| 1777992233 | 7.78° C | 48% | 1003.5 hPa | 0 mm | - | 206 W/m² | - |
| 1777991929 | 8.33° C | 48% | 1003.7 hPa | 0 mm | - | 208 W/m² | - |
| 1777991627 | 8.33° C | 49% | 1003.4 hPa | 0 mm | - | 626 W/m² | - |
| 1777991324 | 7.78° C | 50% | 1003.5 hPa | 0 mm | - | 520 W/m² | - |
| 1777991021 | 7.78° C | 50% | 1003.7 hPa | 0 mm | - | 113 W/m² | - |
| 1777990718 | 7.78° C | 48% | 1003.7 hPa | 0 mm | - | 185 W/m² | - |
| 1777990416 | 7.78° C | 48% | 1003.8 hPa | 0 mm | - | 227 W/m² | - |
| 1777989809 | 7.78° C | 50% | 1003.6 hPa | 0 mm | - | 163 W/m² | - |
* Rain latest hour (hover to see other rain measurements)
** Current wind speed in m/s (hover to see current wind gust speed)